Tracking 18840 objects as of 18-November-2017
HD Live streaming from Space Station
objects crossing your sky now

FENGYUN 1C DEB

Track FENGYUN 1C DEB now!
10-day predictions


NORAD ID: 30753
Int'l Code: 1999-025ATP
Perigee: 839.7 km
Apogee: 927.3 km
Inclination: 99.1 °
Period: 102.5 minutes
Semi major axis: 7254 km
RCS: 0.0105 m2 (small)
Launch date: May 10, 1999
Source: People's Republic of China (PRC)
Launch site: Taiyaun Space Center, China (TSC)

Note: This is SATELLITE DEBRIS
aabbcc
Your satellite tracking list
Your tracking list is empty




NASA's NSSDC Master Catalog

Two Line Element Set (TLE):
1 30753U 99025ATP 17321.59409665 +.00000815 +00000-0 +52521-3 0  9993
2 30753 099.0578 353.4173 0060441 333.1861 026.6185 14.05049627549020
Source of the keplerian elements: AFSPC